Weather History for Jasper, TX

Change the Weather History Date:

Wednesday, May 13, 2009

  Actual Average (KLFK) Record (KLFK)
Temperature  
Mean Temperature 82 °F 74 °F  
Max Temperature 89 °F 84 °F 92 °F (1920)
Min Temperature 74 °F 63 °F 42 °F (1960)
Degree Days  
Heating Degree Days 0 0  
Month to date heating degree days 1  
Since 1 July heating degree days 1914  
Cooling Degree Days 16 9  
Month to date cooling degree days 96  
Year to date cooling degree days 272  
Growing Degree Days 32 (Base 50)    
Moisture  
Dew Point 72 °F    
Average Humidity 75    
Maximum Humidity 96    
Minimum Humidity 52    
Precipitation  
Precipitation 0.00 in 0.14 in 3.02 in (2004)
Month to date precipitation 1.84  
Year to date precipitation 16.72  
Snow  
Snow 0.00 in - - ()
Month to date snowfall  
Since 1 July snowfall  
Snow Depth -    
Sea Level Pressure  
Sea Level Pressure 29.96 in    
Wind  
Wind Speed 7 mph (SSE)    
Max Wind Speed 17 mph    
Max Gust Speed 24 mph    
Visibility 8 miles    
Events      
T = Trace of Precipitation, MM = Missing Value Source: NWS Daily Summary

Daily Weather History Graph

Daily Weather History Graph

Search for Another Location

Airport:

Trip Planner

Search our weather history database for the weather conditions in past years. The results will help you decide how hot, cold, wet, or windy it might be!

Date:

Astronomy

May. 13, 2009 Rise Set
Actual Time 6:22 AM CDT 8:03 PM CDT
Civil Twilight 5:55 AM CDT 8:29 PM CDT
Nautical Twilight 5:24 AM CDT 9:01 PM CDT
Astronomical Twilight 4:50 AM CDT 9:34 PM CDT
Moon No Moon Rise 9:42 AM CDT (5/13)
Length of Visible Light 14h 33m
Length of Day
13h 41m
Waning Gibbous, 82% of the Moon is Illuminated
May 13
Waning Gibbous
May 17
Last Quarter
May 24
New
May 30
First Quarter
Jun 7
Full

Hourly Weather History & Observations

Time (CDT) Temp. Heat Index Dew Point Humidity Pressure Visibility Wind Dir Wind Speed Gust Speed Precip Events Conditions
12:05 AM 75.2 °F - 72.9 °F 92% 29.96 in 5.0 mi SE 4.6 mph - N/A   Scattered Clouds
12:25 AM 75.4 °F - 73.2 °F 93% 29.96 in 5.0 mi SE 4.6 mph - N/A   Overcast
12:45 AM 75.2 °F - 73.2 °F 94% 29.96 in 5.0 mi SSE 3.5 mph - N/A   Overcast
1:05 AM 75.2 °F - 73.2 °F 94% 29.96 in 5.0 mi SSE 3.5 mph - N/A   Scattered Clouds
1:25 AM 75.2 °F - 73.4 °F 94% 29.96 in 5.0 mi Calm Calm - N/A   Clear
2:05 AM 74.7 °F - 73.0 °F 95% 29.97 in 4.0 mi SE 3.5 mph - N/A   Scattered Clouds
2:25 AM 74.7 °F - 73.4 °F 96% 29.97 in 5.0 mi SE 3.5 mph - N/A   Scattered Clouds
2:45 AM 74.7 °F - 73.4 °F 96% 29.97 in 4.0 mi Calm Calm - N/A   Scattered Clouds
3:05 AM 74.5 °F - 73.0 °F 95% 29.98 in 4.0 mi Calm Calm - N/A   Mostly Cloudy
3:25 AM 74.3 °F - 73.0 °F 96% 29.97 in 4.0 mi SE 3.5 mph - N/A   Scattered Clouds
3:45 AM 74.5 °F - 73.2 °F 96% 29.97 in 4.0 mi ESE 4.6 mph - N/A   Scattered Clouds
4:05 AM 74.7 °F - 73.4 °F 96% 29.96 in 4.0 mi SE 3.5 mph - N/A   Mostly Cloudy
4:25 AM 74.7 °F - 73.4 °F 96% 29.96 in 4.0 mi SE 3.5 mph - N/A   Mostly Cloudy
4:45 AM 74.8 °F - 73.6 °F 96% 29.96 in 4.0 mi SSE 4.6 mph - N/A   Mostly Cloudy
5:05 AM 74.8 °F - 73.6 °F 96% 29.96 in 4.0 mi South 6.9 mph - N/A   Overcast
5:25 AM 75.0 °F - 73.6 °F 95% 29.96 in 4.0 mi SSE 4.6 mph - N/A   Overcast
5:45 AM 75.0 °F - 73.8 °F 96% 29.96 in 5.0 mi SSE 3.5 mph - N/A   Overcast
6:05 AM 75.2 °F - 73.6 °F 95% 29.96 in 5.0 mi South 4.6 mph - N/A   Overcast
6:25 AM 75.2 °F - 73.4 °F 94% 29.97 in 5.0 mi SSE 4.6 mph - N/A   Overcast
7:05 AM 75.2 °F - 73.6 °F 95% 29.97 in 4.0 mi South 3.5 mph - N/A   Overcast
7:25 AM 75.6 °F - 73.9 °F 95% 29.97 in 5.0 mi South 4.6 mph - N/A   Overcast
7:45 AM 75.9 °F - 74.1 °F 94% 29.98 in 5.0 mi SSE 4.6 mph - N/A   Overcast
8:25 AM 77.2 °F - 74.3 °F 91% 29.98 in 7.0 mi SSE 4.6 mph - N/A   Overcast
8:45 AM 78.1 °F - 74.5 °F 89% 29.99 in 7.0 mi South 8.1 mph - N/A   Mostly Cloudy
9:05 AM 79.5 °F - 74.5 °F 84% 29.99 in 10.0 mi South 8.1 mph - N/A   Mostly Cloudy
9:25 AM 79.5 °F - 73.9 °F 83% 29.99 in 10.0 mi South 6.9 mph - N/A   Overcast
9:45 AM 81.0 °F 86.3 °F 74.1 °F 80% 29.99 in 10.0 mi South 11.5 mph - N/A   Mostly Cloudy
10:05 AM 81.9 °F 87.5 °F 73.6 °F 76% 29.98 in 10.0 mi SSE 9.2 mph 20.7 mph N/A   Scattered Clouds
10:25 AM 82.6 °F 88.6 °F 73.6 °F 74% 29.99 in 10.0 mi South 12.7 mph 20.7 mph N/A   Scattered Clouds
10:45 AM 84.0 °F 89.9 °F 72.5 °F 68% 29.98 in 10.0 mi South 11.5 mph 18.4 mph N/A   Scattered Clouds
11:05 AM 85.1 °F 91.5 °F 72.5 °F 66% 29.98 in 10.0 mi SSE 9.2 mph 17.3 mph N/A   Scattered Clouds
11:25 AM 86.0 °F 91.8 °F 71.6 °F 62% 29.98 in 10.0 mi South 16.1 mph 21.9 mph N/A   Scattered Clouds
11:45 AM 86.4 °F 91.4 °F 70.7 °F 59% 29.98 in 10.0 mi SSE 13.8 mph 19.6 mph N/A   Clear
12:05 PM 86.9 °F 92.1 °F 70.7 °F 58% 29.97 in 10.0 mi South 15.0 mph 21.9 mph N/A   Clear
12:25 PM 88.0 °F 93.4 °F 70.3 °F 56% 29.97 in 10.0 mi South 12.7 mph 21.9 mph N/A   Clear
12:45 PM 88.9 °F 94.2 °F 70.5 °F 54% 29.97 in 10.0 mi South 13.8 mph 19.6 mph N/A   Clear
1:05 PM 88.3 °F 92.8 °F 69.1 °F 53% 29.96 in 10.0 mi South 17.3 mph 24.2 mph N/A   Clear
1:25 PM 88.7 °F 93.0 °F 69.1 °F 52% 29.96 in 10.0 mi South 13.8 mph 23.0 mph N/A   Clear
1:45 PM 88.9 °F 93.8 °F 69.6 °F 53% 29.96 in 10.0 mi South 13.8 mph 23.0 mph N/A   Scattered Clouds
2:05 PM 89.2 °F 94.5 °F 70.2 °F 53% 29.96 in 10.0 mi SSE 15.0 mph 21.9 mph N/A   Scattered Clouds
2:25 PM 88.7 °F 93.9 °F 70.2 °F 54% 29.95 in 10.0 mi South 12.7 mph 18.4 mph N/A   Scattered Clouds
2:45 PM 88.9 °F 94.2 °F 70.5 °F 54% 29.95 in 10.0 mi South 13.8 mph 20.7 mph N/A   Scattered Clouds
3:05 PM 88.7 °F 93.9 °F 70.0 °F 54% 29.94 in 10.0 mi South 13.8 mph 21.9 mph N/A   Scattered Clouds
3:25 PM 88.9 °F 93.8 °F 70.0 °F 53% 29.93 in 10.0 mi South 17.3 mph 20.7 mph N/A   Scattered Clouds
3:45 PM 89.1 °F 93.7 °F 69.6 °F 52% 29.93 in 10.0 mi South 15.0 mph 21.9 mph N/A   Clear
4:05 PM 89.2 °F 94.1 °F 69.3 °F 52% 29.92 in 10.0 mi SSE 12.7 mph 20.7 mph N/A   Clear
4:25 PM 89.4 °F 94.8 °F 70.0 °F 53% 29.91 in 10.0 mi SSE 11.5 mph 17.3 mph N/A   Scattered Clouds
4:45 PM 88.3 °F 93.6 °F 70.3 °F 55% 29.92 in 10.0 mi South 10.4 mph - N/A   Scattered Clouds
5:05 PM 87.1 °F 92.0 °F 70.3 °F 57% 29.92 in 10.0 mi South 9.2 mph 17.3 mph N/A   Mostly Cloudy
5:25 PM 87.8 °F 92.6 °F 70.0 °F 55% 29.92 in 10.0 mi South 13.8 mph 20.7 mph N/A   Scattered Clouds
5:45 PM 87.4 °F 91.2 °F 68.5 °F 53% 29.92 in 10.0 mi South 9.2 mph - N/A   Scattered Clouds
6:05 PM 86.2 °F 90.7 °F 69.8 °F 58% 29.93 in 10.0 mi SSE 9.2 mph - N/A   Scattered Clouds
6:25 PM 85.1 °F 89.4 °F 70.0 °F 60% 29.92 in 10.0 mi South 8.1 mph - N/A   Clear
6:45 PM 84.9 °F 89.7 °F 70.7 °F 62% 29.92 in 10.0 mi SSE 8.1 mph - N/A   Clear
7:05 PM 83.8 °F 88.1 °F 70.0 °F 63% 29.92 in 10.0 mi SSE 9.2 mph - N/A   Clear
7:25 PM 82.8 °F 86.7 °F 69.8 °F 65% 29.93 in 10.0 mi SSE 6.9 mph - N/A   Clear
7:45 PM 81.9 °F 86.2 °F 71.1 °F 70% 29.94 in 10.0 mi SSE 5.8 mph - N/A   Clear
8:05 PM 80.8 °F 84.9 °F 71.8 °F 74% 29.95 in 10.0 mi SSE 5.8 mph - N/A   Clear
8:25 PM 79.7 °F - 71.8 °F 77% 29.94 in 10.0 mi SSE 8.1 mph - N/A   Clear
8:45 PM 79.2 °F - 71.6 °F 78% 29.96 in 10.0 mi South 5.8 mph - N/A   Clear
9:05 PM 78.6 °F - 71.6 °F 79% 29.96 in 10.0 mi SSE 5.8 mph - N/A   Clear
9:25 PM 78.3 °F - 71.8 °F 80% 29.97 in 10.0 mi SSE 4.6 mph - N/A   Clear
9:45 PM 77.9 °F - 71.8 °F 81% 29.98 in 10.0 mi SSE 4.6 mph - N/A   Clear
10:07 PM 77.4 °F - 72.0 °F 83% 29.98 in 10.0 mi SSE 5.8 mph - N/A   Clear
10:25 PM 77.0 °F - 72.0 °F 84% 29.99 in 10.0 mi SSE 4.6 mph - N/A   Clear
10:45 PM 76.3 °F - 71.8 °F 86% 30.00 in 10.0 mi SE 4.6 mph - N/A   Clear
11:05 PM 75.6 °F - 72.0 °F 89% 30.00 in 10.0 mi ESE 3.5 mph - N/A   Clear
11:25 PM 75.2 °F - 72.0 °F 90% 29.99 in 10.0 mi SE 3.5 mph - N/A   Clear
11:45 PM 75.6 °F - 72.5 °F 90% 29.99 in 10.0 mi SSE 4.6 mph - N/A   Clear